Starlink 3889

operational
NORAD ID: 52331 Int'l Des: 2022-045 Owner: SPXS Country: US Constellation: starlink
LEOCIRCULAR

Starlink 3889について

説明を読み込み中...

リアルタイム位置

3D地球を読み込み中...

次回通過

高度履歴

Altitude vs Time

uPlot chart will show altitude changes over time

軌道要素

1 52331U 22045A 26073.54928961 .00000910 00000-0 75252-4 0 9994
2 52331 53.2176 187.3075 0001263 97.9272 262.1863 15.08840220216376
Epoch: Mar 14, 2026 • Age: 21 hours

現在のステータス

高度 541.2 km
速度 7.59 km/s
衛星直下点 -4.26°S, 33.41°E
打ち上げ日 Apr 29, 2022
運用期間 3.8 years
タイプ internet

技術仕様

分類 Payload
質量 297.00 kg
乾燥質量 275.00 kg
総質量 297.00 kg
長さ 0.20 m
直径 2.80 m
スパン 9.00 m
形状 Box + pan
製造者 SPXS
バスタイプ Starlink
フェーズステータス In Orbit
所有者/国 SPXS/US

大規模コンステレーション

Loading constellations...